Dewpoint
20 18 17 15 14 13 13 15 18 21 20 19 19 22 20 19 19 23 25 28 28 29 32 34 35 37 38 38 38 38 38 37 35 37 41 42 42 43 45 46 47 52 53 58 59 59 60 60 64 64 66 66 66 68 69 71 71 72 71 71 72 73 74 73 73 73 72 72 72 72 70 70 71 73 74 73 73 72 72 76 78 78 79 78 78 78
18 19 15 14 12 13 14 17 19 20 19 18 19 21 21 20 19 23 24 27 29 28 33 35 36 38 40 40 38 39 39 37 35 37 41 41 42 43 46 47 48 49 52 56 58 59 59 60 61 63 66 67 66 68 69 69 70 72 71 71 73 72 73 73 72 73 73 74 72 72 70 69 69 72 73 73 74 72 72 77 77 78 77 77 77 78
17 15 15 13 13 13 14 15 18 18 16 17 19 20 19 21 21 22 24 26 29 29 30 34 35 37 43 42 41 40 40 42 41 39 39 43 44 46 45 48 49 48 52 53 56 57 58 59 60 64 66 65 65 66 66 69 71 73 73 73 74 73 73 73 73 74 74 74 73 72 71 70 69 71 72 72 73 75 71 73 76 78 78 77 77 76
15 13 13 13 11 10 9 11 14 16 17 18 19 20 19 21 21 21 22 25 29 29 28 34 33 37 38 41 42 44 42 43 43 42 42 41 45 45 44 48 49 49 54 52 54 56 57 59 61 64 66 66 65 67 67 68 70 72 74 74 74 75 74 73 74 75 75 74 75 75 74 73 72 72 72 74 75 75 74 72 76 78 79 78 77 77
12 13 11 11 10 7 6 8 9 13 17 19 18 17 19 19 21 21 22 23 28 30 30 31 36 37 38 37 40 44 42 41 43 43 44 45 44 44 45 47 50 49 53 53 52 56 58 59 60 65 67 65 65 66 66 67 69 70 73 74 74 75 75 74 74 75 76 76 76 76 76 75 75 75 75 73 74 75 75 73 75 76 78 77 77 76
9 11 10 8 7 5 5 5 8 11 16 17 18 18 18 19 22 23 22 24 28 30 30 30 35 37 39 38 37 40 42 42 44 46 46 50 48 49 47 48 49 49 52 56 55 55 57 58 61 65 67 66 65 66 67 67 69 71 73 74 75 75 75 75 75 75 76 76 76 76 75 74 74 74 73 72 73 74 75 73 73 77 75 76 76 76
10 8 8 7 6 4 3 4 7 10 13 17 19 19 19 19 21 21 22 22 25 30 32 32 32 35 38 38 39 40 40 43 47 47 45 50 53 48 49 49 47 48 49 52 53 54 55 59 60 64 67 66 65 65 67 68 70 72 74 75 75 75 75 75 75 75 76 76 76 75 74 74 74 74 74 76 74 74 74 74 74 74 75 76 74 72
15 11 7 7 7 4 2 3 5 9 13 16 19 20 19 18 18 19 23 22 25 29 29 31 32 34 36 37 41 41 41 43 49 47 48 46 50 46 47 46 51 49 50 51 55 55 56 60 60 62 66 67 65 65 66 67 70 73 74 75 75 75 75 75 76 76 76 75 76 76 75 75 75 73 74 75 76 75 75 75 72 72 73 74 75 73
15 12 8 6 7 5 1 1 4 7 9 13 16 18 17 17 19 20 21 22 26 28 31 31 33 35 35 39 41 41 41 46 48 47 47 49 49 49 49 47 49 49 52 51 52 54 55 59 60 61 64 65 65 65 66 68 70 72 73 75 75 75 75 75 76 76 76 76 76 76 75 76 75 74 74 74 74 75 74 74 74 75 74 75 75 76
15 14 11 8 6 4 4 -0 -1 4 7 12 14 17 17 17 19 20 19 22 25 27 28 32 31 34 35 38 37 40 40 42 44 44 44 48 50 51 49 49 49 51 56 52 51 55 56 58 60 60 62 65 65 66 68 68 69 71 73 74 75 75 75 75 76 76 76 76 76 76 76 75 75 75 74 73 74 75 75 75 75 75 75 74 74 75
14 21 20 9 5 6 8 3 -0 2 7 10 14 15 15 16 18 21 21 26 29 27 30 26 29 31 32 37 38 38 39 40 39 43 44 47 48 49 51 48 47 50 52 52 53 55 58 57 60 61 61 65 66 66 67 67 68 70 72 74 75 75 75 76 76 76 76 76 76 76 76 75 75 75 75 74 74 74 75 74 74 75 75 75 74 72
15 15 15 14 11 8 8 4 1 1 3 8 12 13 16 21 20 27 26 29 25 23 28 24 26 29 31 35 36 40 40 39 38 39 42 43 46 49 51 45 45 48 52 52 54 55 58 61 61 62 63 64 67 67 67 66 69 70 71 73 74 75 76 76 76 76 75 75 76 76 76 76 76 75 74 74 73 74 74 73 74 75 76 75 74 75
13 13 14 16 22 11 6 -2 -4 -1 1 6 10 17 16 18 24 20 25 22 21 21 23 20 25 27 30 35 36 36 37 38 39 37 38 40 43 49 47 47 50 50 48 52 57 59 58 60 61 61 65 66 68 68 68 66 66 70 72 73 74 75 76 76 75 75 76 76 76 76 76 76 76 76 75 75 74 75 74 74 75 75 75 75 74 74
15 14 13 14 14 17 8 -2 2 1 1 0 7 15 17 16 17 19 19 23 24 22 22 23 25 25 30 32 35 34 36 37 37 39 38 41 44 48 47 51 49 52 54 54 54 56 59 62 62 63 64 66 67 67 68 68 68 70 71 73 73 75 76 76 75 76 76 76 76 77 76 76 76 76 76 75 74 74 75 75 75 73 73 74 73 71
15 14 12 13 13 12 6 1 3 2 -2 3 8 11 17 21 16 20 19 19 20 22 21 21 22 29 27 32 33 34 36 37 36 36 41 43 43 49 49 53 52 54 55 56 58 57 58 61 63 63 65 66 66 66 65 67 69 71 71 73 74 75 75 76 76 76 76 76 76 77 76 76 76 76 76 76 75 75 75 74 74 75 74 73 73 73
13 14 15 13 14 10 5 5 6 4 5 8 9 10 14 18 21 17 21 20 19 20 21 25 25 27 26 35 34 35 33 35 35 37 38 43 42 43 43 45 49 50 49 50 53 57 59 61 63 63 64 66 66 67 66 67 69 71 71 73 74 75 75 76 76 76 76 76 76 77 76 76 76 76 76 76 76 76 75 75 75 75 75 74 74 74
16 14 15 15 13 12 8 8 8 7 6 4 3 6 9 14 14 21 24 18 20 22 23 29 26 28 28 29 30 33 33 34 35 34 33 37 39 45 43 49 50 49 50 51 52 55 60 60 62 63 64 63 65 65 66 68 69 71 72 73 74 75 75 76 76 76 76 76 76 76 76 76 76 76 75 75 75 73 75 76 75 74 74 74 75 74
15 16 15 17 15 13 11 10 8 7 5 0 0 2 6 9 11 22 16 23 19 18 23 20 19 23 25 27 32 31 33 33 35 35 32 38 41 40 43 51 51 48 50 52 56 61 61 60 62 62 61 61 63 64 67 69 70 71 71 72 73 74 75 75 76 75 75 76 76 76 76 76 76 75 74 74 75 75 75 75 75 74 74 74 73 73
10 13 16 17 16 15 11 10 8 7 6 2 -2 0 2 9 13 22 24 18 16 16 21 24 22 24 26 30 29 32 32 33 36 38 34 35 37 38 46 47 50 50 49 53 53 60 61 60 61 63 61 61 63 67 68 69 68 69 71 71 71 73 74 74 73 74 75 76 75 76 76 76 76 76 75 74 75 75 74 72 74 73 73 73 73 73
11 9 12 15 15 12 10 9 11 7 6 4 1 -3 7 10 14 16 20 22 19 18 23 21 18 22 28 25 26 28 34 36 34 36 34 33 34 35 37 52 52 52 52 50 50 55 59 59 58 58 61 62 63 66 66 66 65 64 67 70 70 71 74 75 75 75 75 75 75 75 76 76 76 76 76 75 75 75 74 73 73 72 72 73 72 72
12 21 12 10 15 11 10 11 10 9 7 4 1 0 0 2 5 10 13 16 17 22 23 21 18 23 27 26 25 33 37 37 35 37 42 37 34 31 35 40 51 53 54 53 53 52 55 56 53 56 61 62 63 65 64 64 64 63 64 67 68 71 71 73 74 74 75 75 75 76 76 76 76 76 75 75 75 74 74 74 72 72 72 73 71 71
15 15 15 14 12 13 10 12 11 8 5 4 0 -1 -2 -1 13 14 16 12 15 18 23 19 20 29 25 20 34 35 38 30 32 38 38 36 33 39 38 40 53 52 56 55 52 50 51 56 57 59 62 64 63 63 63 64 64 63 64 65 67 69 71 71 73 74 75 75 75 75 75 75 75 75 75 74 74 74 74 74 74 73 72 72 71 71
16 17 17 14 12 12 13 12 13 12 11 8 4 -1 -4 -2 11 16 16 16 16 16 17 22 20 25 33 35 38 29 30 25 33 36 36 34 36 35 36 31 49 53 53 50 49 48 51 56 58 60 62 64 64 65 64 64 63 62 63 65 67 68 70 71 72 73 75 75 75 75 75 75 75 75 75 73 73 71 71 73 74 74 73 71 69 72
44 15 17 17 20 16 15 14 14 15 13 9 6 2 -5 -6 1 7 13 19 17 17 15 17 23 20 26 47 43 29 47 29 34 33 39 31 33 34 36 37 51 55 55 51 51 48 54 59 62 63 63 64 66 67 66 65 64 63 63 64 65 65 68 70 70 71 74 75 74 74 75 76 76 74 72 71 71 71 70 71 72 74 73 72 69 70
17 24 20 19 23 22 19 15 10 12 12 10 6 5 2 -3 -0 5 9 24 19 14 16 19 19 18 27 46 47 37 28 25 25 27 31 35 38 33 37 53 55 61 60 57 57 57 59 58 63 64 64 66 68 66 67 67 65 63 64 63 63 63 66 69 69 69 72 72 72 72 74 73 74 74 73 72 71 70 70 70 71 72 72 72 70 71
17 20 25 16 21 20 19 17 13 13 11 10 11 7 6 1 3 4 4 18 17 34 30 20 17 26 31 41 38 35 32 44 34 29 28 34 50 39 44 58 56 62 62 61 62 60 59 62 65 67 69 70 68 66 69 69 66 63 63 63 62 62 64 66 66 66 69 71 72 74 73 73 72 73 73 72 71 70 70 70 71 72 72 72 71 72
19 22 26 27 22 20 24 30 18 17 12 10 9 9 5 3 1 3 10 10 7 24 28 29 32 35 31 28 34 27 32 32 31 36 35 40 37 57 60 63 62 66 65 62 65 63 64 66 66 69 72 71 67 66 67 67 66 63 65 64 61 62 62 64 64 66 66 69 71 74 73 73 73 73 73 73 72 71 71 69 68 70 72 72 72 71
34 23 22 34 30 24 20 23 16 14 12 10 8 7 7 6 5 5 3 2 26 24 15 31 47 33 29 30 33 37 30 38 39 42 36 41 55 42 45 62 65 62 65 66 66 67 68 72 71 71 72 71 68 67 66 66 65 65 65 63 61 60 60 61 63 66 67 70 72 74 73 74 73 74 74 73 74 73 71 70 70 71 72 73 72 71
27 19 18 19 18 17 16 20 19 14 10 12 10 8 8 7 7 6 16 7 25 13 11 34 45 39 32 22 23 36 41 40 29 34 35 41 39 51 66 56 57 59 65 64 68 69 69 70 75 74 72 71 70 68 66 65 65 66 64 62 61 57 59 62 63 65 66 71 73 75 74 75 75 74 75 74 74 74 73 71 71 71 73 73 72 71
30 23 25 20 19 18 17 16 18 18 14 11 11 9 7 5 5 3 2 2 4 30 28 26 42 33 22 21 20 25 40 32 36 41 41 40 32 53 52 57 45 42 60 64 67 68 70 71 74 75 74 73 71 70 66 66 67 65 62 60 59 59 58 64 64 66 66 70 74 75 75 76 76 75 75 75 75 74 74 72 72 71 73 73 73 73
24 27 31 24 26 19 18 19 18 18 19 16 10 11 8 4 4 4 2 3 11 10 6 7 28 33 22 34 31 30 34 36 40 35 30 41 39 33 39 36 41 43 52 65 69 67 69 70 72 74 74 73 72 71 69 68 68 67 60 57 55 59 58 63 66 65 65 71 74 75 76 76 76 76 76 76 75 75 75 74 73 73 74 73 74 73
24 26 25 28 27 25 22 21 21 19 19 19 18 14 15 13 12 6 8 5 10 21 21 11 23 24 24 26 22 31 34 36 35 40 42 47 37 42 42 40 41 44 57 61 67 67 69 69 71 72 73 71 71 72 70 71 70 68 63 58 55 54 55 60 66 65 67 71 75 76 76 76 77 77 77 77 76 76 76 76 75 75 75 76 75 76
23 24 25 25 24 26 23 20 20 21 21 20 21 20 17 16 16 15 9 12 11 7 10 16 15 23 31 33 27 28 22 31 33 33 35 38 53 42 42 44 44 45 51 66 68 70 67 64 67 72 70 68 69 70 70 71 69 70 68 66 61 58 56 57 67 69 69 72 75 77 77 77 78 78 77 78 77 77 77 77 76 75 76 75 75 75
27 21 23 29 27 25 23 25 24 24 22 22 24 21 21 18 15 13 12 12 15 14 13 13 16 29 31 26 26 29 29 35 42 46 43 48 55 62 54 50 43 40 41 43 60 67 69 69 68 70 70 71 71 68 68 70 70 71 69 68 68 63 61 62 69 71 70 73 75 77 78 78 79 78 78 78 78 78 78 77 76 76 75 75 75 75
23 26 24 31 22 23 28 26 24 21 23 32 27 25 21 18 18 18 17 18 18 16 14 17 19 25 31 29 30 37 47 45 47 43 31 29 41 44 52 49 54 53 49 50 55 65 71 72 72 73 74 69 68 70 70 70 70 71 69 70 70 71 71 68 72 73 73 75 76 78 78 78 79 78 78 77 77 77 76 76 76 75 75 75 74 74
33 26 27 26 25 27 27 26 23 23 32 28 27 28 29 26 23 23 21 20 20 19 24 26 36 27 31 28 22 34 42 32 22 34 44 38 33 37 32 36 38 38 43 50 61 65 73 71 71 70 72 71 71 69 68 68 68 68 68 68 69 70 71 72 75 75 75 76 77 78 78 78 77 78 77 76 76 75 75 75 75 75 76 76 75 74
32 37 28 24 31 26 26 27 27 35 30 29 28 29 27 29 27 26 24 26 26 27 25 30 38 36 37 24 22 21 28 21 32 33 21 19 34 32 27 29 28 34 36 44 49 66 73 72 72 69 75 73 70 68 67 68 68 69 69 67 68 71 70 74 76 75 76 77 77 78 78 78 77 77 76 75 75 75 74 74 74 75 76 75 75 74
40 35 37 30 30 30 28 28 29 30 30 32 37 36 38 35 38 39 41 39 42 38 37 37 39 37 44 47 38 30 32 30 28 30 29 19 18 22 25 26 26 30 33 36 47 65 69 70 71 72 72 72 71 69 69 69 70 71 70 69 70 70 69 76 75 76 77 77 78 78 78 77 77 76 75 75 74 74 74 74 75 75 75 74 74 73
30 35 41 30 35 34 32 31 30 30 32 37 37 40 41 38 35 38 36 33 40 37 36 42 39 44 44 40 51 47 41 28 25 30 34 25 21 17 18 19 20 22 30 33 51 62 64 69 70 69 73 73 70 70 71 70 70 70 71 71 69 69 71 76 76 77 77 77 77 78 77 77 76 75 75 74 74 73 73 73 73 74 74 74 73 72
27 28 32 35 35 36 35 31 31 36 43 42 44 42 38 39 38 36 29 28 51 51 50 50 45 40 49 54 53 49 44 34 29 30 21 22 23 25 50 57 41 29 30 33 34 54 66 74 73 71 70 71 73 71 72 71 71 71 71 71 69 70 72 75 76 77 76 77 78 77 77 76 76 75 74 74 73 73 73 73 73 72 72 72 71 70
25 28 29 30 32 34 36 34 35 36 41 44 39 42 39 38 38 31 28 31 53 51 49 51 48 52 54 54 54 46 47 42 40 40 26 24 24 53 57 58 58 53 37 26 34 63 73 74 72 70 68 72 74 71 70 70 71 71 72 72 72 71 72 76 77 77 76 77 77 77 76 76 75 74 74 74 74 73 73 73 72 72 71 70 69 69
25 28 28 30 29 30 31 32 32 33 38 34 45 40 38 37 34 32 51 53 53 48 48 47 50 53 55 57 57 55 51 41 38 30 36 31 36 59 58 55 57 60 40 56 69 63 70 68 72 70 67 74 73 71 70 72 74 73 74 73 74 75 74 76 77 76 76 76 76 75 75 75 75 74 74 74 74 73 73 74 72 72 71 68 68 68
28 22 23 25 29 28 32 29 30 30 38 36 45 40 39 37 37 49 52 50 45 47 49 51 50 52 55 55 55 56 56 54 44 42 47 44 55 60 62 61 64 61 64 61 72 64 67 69 70 67 67 69 69 69 70 73 75 74 74 74 75 75 76 76 76 76 75 75 74 74 75 75 74 73 73 74 74 72 72 72 71 69 68 68 67 66
43 36 22 25 30 26 26 27 27 31 40 41 43 42 42 41 53 53 49 46 46 49 52 51 54 56 54 55 59 60 60 60 58 59 60 55 53 57 61 65 67 64 66 63 64 67 66 70 69 67 67 66 70 72 72 75 74 74 74 75 76 76 76 76 76 75 74 73 74 74 75 74 72 72 72 73 73 72 71 71 69 68 67 67 66 65
51 46 49 42 38 28 30 30 47 51 45 38 41 51 50 49 50 50 49 48 47 51 55 55 56 54 53 58 60 62 60 61 62 62 63 62 63 63 62 63 62 67 66 62 64 69 67 68 69 67 69 72 74 75 76 75 75 75 76 77 76 76 75 75 74 74 73 73 73 73 73 72 73 73 72 72 71 71 70 69 68 67 67 66 65 65
47 47 52 49 49 51 50 50 49 47 45 47 44 44 46 45 48 49 52 54 53 54 53 53 55 55 55 58 60 62 62 61 61 60 61 65 65 66 67 66 68 67 65 63 67 69 68 67 68 68 69 74 76 76 76 77 76 76 77 76 76 76 75 74 73 73 73 73 72 71 71 71 70 70 70 71 70 70 69 67 66 66 66 65 64 65
46 48 48 47 51 48 43 52 50 47 45 44 43 43 45 46 47 52 55 54 55 54 53 56 57 56 57 60 61 62 62 62 62 62 62 61 64 65 65 67 66 67 68 65 68 71 68 64 65 71 72 73 74 74 74 75 75 76 77 76 74 74 75 74 73 72 72 71 70 70 70 69 67 67 68 69 67 67 66 66 66 66 66 65 63 64
48 50 47 47 50 50 47 55 51 47 48 46 47 45 43 48 50 51 52 54 54 53 52 53 54 54 56 58 60 62 62 61 61 62 62 61 62 64 68 68 67 67 69 70 70 70 70 70 69 71 72 73 74 75 73 73 73 74 74 74 73 73 73 72 71 70 70 69 69 69 68 66 67 66 65 64 64 64 64 65 65 65 65 65 64 65
51 52 48 49 48 52 55 55 53 51 50 48 49 50 50 48 50 51 52 51 51 51 52 52 51 51 51 52 56 60 61 61 61 63 63 63 61 63 66 67 67 69 70 70 72 72 71 70 70 71 71 71 72 73 73 72 73 73 72 72 72 73 71 70 69 69 68 66 66 66 67 65 65 63 64 63 60 57 56 62 66 65 63 59 60 66
50 49 50 49 47 48 51 54 54 51 50 52 49 49 49 50 49 49 49 49 49 50 50 49 49 49 49 50 51 52 54 60 63 63 64 64 64 64 65 66 66 65 66 67 68 69 69 69 70 70 69 69 68 68 69 70 70 69 69 70 71 71 70 70 68 67 66 65 65 64 64 64 63 64 64 61 58 58 54 49 42 51 62 57 53 47
51 51 51 48 48 49 52 55 56 55 55 52 52 50 49 48 48 47 47 47 48 49 49 49 48 50 51 51 51 50 52 53 53 54 60 62 63 64 65 66 66 67 66 68 66 66 67 68 68 68 69 69 69 67 67 69 69 71 70 71 70 70 70 69 68 66 65 65 64 64 65 63 63 64 65 62 61 61 59 58 54 42 41 46 47 44